Find SPAWAR-CAL-OR

NORAD ID: 43778 Int'l Des: 2018-099 Owner: SPAWAR Country: US operational
LEOCIRCULARRETROGRADESSO

リアルタイム位置

3D地球を読み込み中...

SPAWAR-CAL-ORについて

説明を読み込み中...

次回通過

Passes for default location (London). Set your location on the main map for personalized predictions.

高度履歴

Loading altitude history...

軌道要素

1 43778U 18099W 26104.11656735 .00004631 00000-0 20409-3 0 9995
2 43778 97.3874 153.4584 0012128 173.6428 186.4964 15.22232406402904
Epoch: Apr 14, 2026 • Age: 29 hours

現在のステータス

高度 523.7 km
速度 7.60 km/s
衛星直下点 -69.10°S, 12.94°W
打ち上げ日 Dec 3, 2018
運用期間 7.3 years
タイプ other

技術仕様

分類 Payload
質量 1.00 kg
乾燥質量 1.00 kg
総質量 1.00 kg
長さ 0.10 m
直径 0.10 m
スパン 0.10 m
形状 Box
製造者 SPAWAR
バスタイプ Cubesat 1U
フェーズステータス In Orbit
所有者/国 SPAWAR/US

Most Searched